Regional Weather Roundup
Issued by NWS

Home | Current Version | Previous Version | Text Only | Print | Product List | Glossary On
Versions: 1 2 3 4 5 6 7 8 9 10 11 12 13 14 15 16 17 18 19 20 21 22 23 24 25 26 27 28 29 30 31 32 33 34 35 36 37 38 39 40 41 42 43 44 45 46 47 48 49 50
000
ASUS44 KOUN 290510
RWROK

WEATHER ROUNDUP FOR OKLAHOMA
NATIONAL WEATHER SERVICE NORMAN OK
1200 AM CDT FRI JUL 29 2016

NOTE: "FAIR" INDICATES FEW OR NO CLOUDS BELOW 12,000 FEET WITH NO
      SIGNIFICANT WEATHER AND/OR OBSTRUCTIONS TO VISIBILITY.

OKZ001>007-009>012-014-015-017-290600-
NORTHWEST OKLAHOMA AND THE PANHANDLE

CITY           SKY/WX    TMP DP  RH WIND       PRES   REMARKS
GAGE           CLOUDY    77  66  68 SE9       30.00S
GUYMON         CLEAR     77  60  55 SE3       30.03R
ENID/WOODRING  CLEAR     73  68  83 NE6       29.97R
$$

OKZ016-021>023-033>039-044-045-290600-
SOUTHWEST OKLAHOMA

CITY           SKY/WX    TMP DP  RH WIND       PRES   REMARKS
LAWTON/REGL    CLEAR     84  69  60 SE3       29.95S
LAWTON/FT SILL CLEAR     83  71  68 S5        29.94S
FREDERICK      CLEAR     82  69  64 S5        29.93R
CLINTON        CLEAR     80  66  62 SE8       30.01R
HOBART         CLEAR     83  68  60 S10       29.97F
ALTUS AFB      CLEAR     81  67  62 SE7       29.95S
$$

OKZ018>020-024>031-290600-
CENTRAL OKLAHOMA

CITY           SKY/WX    TMP DP  RH WIND       PRES   REMARKS
OKLAHOMA CITY  MOCLDY    82  74  76 NE8       29.98R
OKC/WILEY POST CLEAR     80  71  74 E13       29.97S
OKC/TINKER AFB CLEAR     77  71  81 E8        29.97R
STILLWATER     CLEAR     75  69  81 NE10      29.97F
GUTHRIE        CLEAR     76  70  82 E10       29.97F
$$

OKZ008-013-054>072-290600-
NORTHEAST OKLAHOMA

CITY           SKY/WX    TMP DP  RH WIND       PRES   REMARKS
TULSA          MOCLDY    75  70  84 NW6       29.98R
TULSA/JONES    CLOUDY    76  71  85 N5        29.98S
PONCA CITY     CLEAR     75  64  68 E8        29.97S
BARTLESVILLE   LGT RAIN  70  66  87 CALM      30.00F
MUSKOGEE       CLOUDY    75  73  93 N3        29.97S
$$

OKZ032-040>043-046>053-073>077-290600-
SOUTH CENTRAL/SOUTHEAST OKLAHOMA

CITY           SKY/WX    TMP DP  RH WIND       PRES   REMARKS
ARDMORE/DWNTWN CLEAR     81  70  69 CALM      29.96S
MCALESTER      CLEAR     81  72  74 S3        29.97S
$$





USA.gov is the U.S. government's official web portal to all federal, state and local government web resources and services.